Temperature
14 14 14 14 14 14 14 14 14 15 15 15 15 15 15 15 15 15 15 15 15 15 15 15 15 15 15 15 15 15 15 15 15 15 14 14 14 14 14 14 14 14 14
14 13 14 14 14 14 14 14 14 14 14 14 14 14 15 15 15 15 15 15 15 15 15 15 15 15 14 14 15 15 15 15 15 15 14 14 14 14 14 14 14 14 14
13 13 13 13 13 14 14 14 14 14 14 14 14 14 14 15 15 15 15 15 15 15 14 14 15 14 14 14 14 14 14 15 15 14 14 14 14 14 14 14 14 14 13
13 13 13 13 13 13 13 13 13 13 13 13 14 14 14 14 14 14 15 15 15 14 14 14 14 14 14 14 14 14 14 14 14 14 14 14 14 13 13 13 13 13 13
13 13 13 13 13 13 13 13 13 13 13 13 13 13 13 14 14 14 14 14 14 14 14 14 14 14 14 14 14 14 14 14 14 14 14 14 14 13 13 13 13 13 13
13 13 13 13 13 13 13 13 13 13 13 13 13 13 13 13 13 13 13 14 14 14 14 14 14 14 14 14 14 14 14 14 14 14 14 14 14 13 13 13 13 13 13
12 12 12 12 12 13 13 13 13 13 12 13 13 13 13 13 13 13 13 13 13 13 14 14 14 14 14 14 14 14 14 14 14 14 14 13 13 13 13 13 13 12 12
12 12 12 12 12 12 12 12 12 12 12 12 12 13 13 13 13 13 13 13 13 13 13 13 13 13 13 13 13 13 13 13 13 13 13 13 13 13 13 13 12 12 12
12 12 12 12 12 12 12 12 12 12 12 12 12 12 12 13 13 13 13 13 13 13 13 13 13 13 13 13 13 13 13 13 13 13 13 13 13 13 13 13 12 12 12
11 11 11 11 11 12 12 12 12 12 12 12 12 12 12 12 12 12 12 12 12 13 12 12 13 13 13 13 13 13 13 13 13 13 13 13 13 12 12 12 12 12 12
11 11 11 11 11 11 11 11 11 11 11 11 11 11 12 12 12 12 12 12 12 12 12 12 12 12 12 12 12 12 12 12 13 12 12 12 12 12 12 12 12 12 12
11 11 10 10 10 11 11 11 11 11 11 11 11 11 11 11 12 11 12 12 12 12 12 12 12 12 12 12 12 12 12 12 12 12 12 12 12 12 12 12 12 12 12
10 10 10 10 10 10 10 10 10 10 10 10 10 11 11 11 11 11 11 11 11 11 11 11 11 12 12 12 12 12 12 12 12 12 12 12 12 12 12 12 12 12 12
9 10 9 9 9 10 10 10 10 10 10 10 10 10 10 10 10 11 11 11 11 11 11 11 11 11 11 11 11 11 11 11 11 11 11 11 11 11 11 11 11 11 11
9 9 9 9 9 9 9 9 9 9 9 10 10 10 10 10 10 10 10 10 10 11 11 11 11 11 11 11 11 11 11 11 11 11 11 11 11 11 11 11 11 11 11
9 9 9 9 9 9 9 9 9 9 9 9 9 9 9 9 9 10 10 10 10 10 10 10 10 10 10 11 11 11 11 11 11 11 11 11 11 11 11 11 10 10 10
8 8 8 8 8 8 8 8 8 9 9 9 9 9 9 9 9 9 9 9 9 9 9 10 10 10 10 10 10 10 10 10 10 10 10 10 10 10 10 10 10 10 10
8 8 8 8 8 8 8 8 8 8 8 8 8 8 8 8 9 9 9 9 9 9 9 9 9 9 9 9 9 10 10 10 10 10 10 10 10 10 10 10 10 10 10
8 8 8 8 7 7 7 7 8 8 8 8 8 8 8 8 8 8 8 8 8 8 8 8 8 8 9 9 9 9 9 9 9 9 9 9 9 9 9 9 9 9 9
7 7 7 7 7 7 7 7 7 7 7 7 7 8 8 8 8 8 8 8 8 7 8 8 8 8 8 8 8 8 9 9 9 9 9 9 9 9 9 9 9 9 9
7 7 7 7 7 7 7 7 7 7 7 7 7 7 7 7 7 7 7 7 7 7 7 7 7 7 8 8 8 8 8 8 8 8 8 8 8 8 8 8 8 8 8
7 7 7 6 6 6 6 6 6 6 6 6 6 7 7 7 7 6 6 6 6 6 6 6 7 7 7 7 7 7 7 7 8 8 7 7 7 7 8 8 7 8 8
7 7 6 6 6 6 6 6 6 6 6 6 6 6 6 6 6 6 6 6 6 6 6 6 6 6 6 6 6 6 6 6 6 7 7 7 7 7 7 7 7 7 7
7 6 6 6 6 6 5 5 5 5 5 5 6 6 6 6 5 6 6 6 6 5 5 5 6 6 6 6 6 5 5 5 5 5 6 6 6 6 6 6 6 7 7
6 6 6 6 6 5 5 5 5 5 5 5 5 5 5 5 5 5 5 5 5 5 5 5 5 5 5 5 5 5 5 5 5 5 5 5 6 6 6 6 6 6 6
6 6 5 5 5 5 5 5 5 5 5 5 5 5 5 5 5 5 5 5 5 5 5 5 5 5 5 5 5 5 5 5 5 5 5 5 5 5 5 5 5 6 6
Wind_Speed
1 2 5 5 5 5 5 5 6 6 7 7 7 8 8 8 8 8 8 8 8 8 7 7 7 7 7 7 7 8 8 8 8 8 7 7 8 8 9 9 8 7 8
3 3 6 6 5 5 5 5 5 6 6 6 7 7 7 7 7 8 7 7 7 7 7 7 8 7 7 7 7 7 7 7 7 7 7 6 6 7 7 7 7 6 7
5 5 5 6 6 5 5 5 5 5 5 6 6 6 6 6 7 7 7 7 7 7 7 8 7 7 7 6 6 5 6 6 6 6 6 5 4 6 6 6 6 6 6
6 5 5 6 6 6 6 5 5 5 5 5 5 6 6 6 6 6 6 6 6 6 7 7 7 6 6 6 5 4 4 5 5 5 4 3 2 4 5 5 5 5 5
6 6 5 6 6 6 6 5 5 5 5 4 5 5 5 6 5 5 5 5 5 6 6 6 6 6 5 5 5 5 4 4 4 4 4 2 1 3 4 4 4 4 4
5 6 5 5 5 5 5 5 4 4 5 5 4 4 4 4 4 5 5 4 5 5 5 5 5 5 4 4 4 4 4 3 3 3 3 2 1 2 3 3 3 4 3
4 5 5 5 4 4 4 4 4 4 4 4 4 4 3 4 3 3 4 4 4 4 4 4 4 4 3 3 3 3 3 2 2 3 2 1 1 2 3 3 3 3 3
4 4 4 5 4 4 4 4 4 3 3 4 4 4 3 3 2 2 3 3 2 3 3 3 3 3 3 3 3 3 3 2 1 1 1 1 2 2 2 3 2 2 1
5 4 4 4 4 3 3 3 3 3 3 3 4 4 4 3 2 2 2 2 1 2 2 2 2 2 3 3 3 3 3 3 1 0 1 1 2 2 2 2 1 2 1
3 3 3 4 4 4 3 3 4 4 2 3 3 3 4 4 3 2 1 1 1 1 1 1 2 2 3 3 3 4 4 3 1 1 1 2 2 3 2 1 1 2 2
2 1 2 3 3 4 4 4 4 3 2 2 2 2 3 3 3 2 1 0 0 1 1 1 2 2 3 3 4 4 4 2 1 1 2 3 3 3 3 2 2 2 2
1 1 1 1 2 2 3 4 3 3 3 2 1 2 2 3 2 3 2 0 0 0 1 1 2 3 3 3 3 3 3 2 1 1 2 2 3 3 3 2 2 2 2
3 2 1 1 1 1 2 2 2 2 3 2 2 2 2 3 3 3 3 2 1 1 1 2 2 3 3 3 2 2 2 2 1 2 2 3 3 3 2 3 3 3 2
2 2 2 1 1 1 1 1 1 1 2 2 2 1 2 2 2 3 3 3 2 2 2 2 2 2 3 3 2 2 2 2 1 2 2 3 3 3 3 3 3 3 3
2 2 2 2 1 1 0 0 1 0 1 2 1 1 1 1 1 2 2 2 2 2 2 2 2 2 2 3 3 2 2 3 2 2 2 3 3 4 4 4 4 4 4
3 3 2 2 2 1 1 1 1 1 1 1 1 1 1 1 1 1 1 2 2 2 2 1 2 2 2 2 2 3 3 3 3 2 2 2 3 4 5 5 5 5 5
4 3 3 2 1 1 1 1 1 1 1 1 1 1 1 1 1 1 1 2 2 2 2 1 1 1 2 2 2 3 3 3 3 2 2 1 2 3 4 4 6 5 5
3 3 3 2 1 2 2 2 1 1 2 2 2 2 2 2 1 1 1 2 2 1 1 1 1 1 2 2 2 3 3 3 3 3 2 2 1 2 2 2 4 4 5
3 3 3 2 2 2 2 1 1 1 2 2 2 2 2 2 2 0 1 2 2 1 1 1 1 1 2 2 3 3 2 2 3 2 2 2 2 2 1 2 3 4 5
2 2 2 2 2 2 1 1 0 0 1 1 1 2 2 2 2 1 1 2 1 0 1 1 1 2 2 2 3 3 3 3 2 2 2 1 2 2 2 2 2 3 4
1 1 2 2 2 1 1 1 1 1 1 1 2 2 2 2 2 1 1 1 1 1 1 1 1 2 2 1 1 2 3 2 2 2 1 1 1 2 2 1 1 2 3
3 3 2 2 2 2 2 2 1 1 2 2 2 2 2 2 2 2 1 1 1 1 1 1 1 1 1 1 0 1 2 2 2 2 1 1 1 1 1 1 1 2 3
3 3 2 2 1 2 2 1 0 0 1 1 1 1 2 2 2 2 2 2 1 2 2 2 2 2 2 2 0 1 1 2 2 2 2 2 1 1 1 1 2 2 3
4 3 2 2 2 2 2 2 2 2 2 3 2 2 2 2 3 3 3 2 2 2 3 3 2 2 2 2 2 2 2 2 2 2 2 1 1 2 2 2 2 2 3
3 3 2 2 2 2 2 3 3 2 3 2 2 2 2 2 3 3 3 2 2 2 3 3 2 2 2 3 3 2 2 2 2 2 4 3 2 2 2 2 2 1 3
2 2 2 2 2 2 2 2 3 3 3 3 3 3 3 2 2 3 3 3 3 3 3 3 3 3 3 3 3 3 2 2 2 2 3 4 4 3 3 2 1 1 2
Wind_Direction
196 148 96 80 82 77 79 75 69 67 69 66 67 68 64 61 60 65 71 72 72 70 71 72 72 76 80 80 79 84 85 85 83 81 82 79 90 97 94 93 88 85 87
145 120 101 80 73 80 76 76 71 67 67 66 63 67 67 64 63 63 69 72 72 72 73 73 72 73 74 77 77 84 85 85 84 84 82 74 83 98 97 93 96 100 98
110 106 101 83 69 65 74 71 70 70 68 68 66 65 65 64 64 64 68 72 72 71 71 69 71 70 68 69 73 79 82 82 89 84 83 70 77 94 97 96 98 101 102
104 95 87 78 70 60 59 70 69 66 70 68 66 66 63 62 65 64 67 72 71 69 68 63 63 68 65 62 58 61 75 87 89 83 70 63 75 101 101 103 102 102 99
84 82 79 80 69 61 55 58 68 67 63 65 67 66 63 58 58 64 71 75 74 72 69 63 58 61 62 58 49 45 59 81 81 74 61 65 72 109 106 105 108 107 109
78 77 78 79 71 61 56 55 61 66 60 56 62 67 63 56 55 58 64 74 81 76 71 65 59 55 50 49 41 37 42 61 72 69 67 68 79 116 114 111 115 118 116
87 81 79 70 64 60 52 54 52 60 58 52 49 57 64 58 50 55 65 71 86 83 74 64 58 47 41 36 28 27 25 28 72 68 52 43 157 137 130 124 112 122 131
103 87 79 66 54 42 38 40 38 45 52 47 44 39 43 53 42 62 69 59 86 91 78 66 54 39 26 14 6 6 6 9 72 48 21 317 206 173 159 147 131 116 136
106 88 65 58 54 41 28 21 22 25 44 42 40 32 28 22 33 49 61 53 70 96 80 67 48 28 12 1 351 353 355 349 5 332 301 284 221 204 187 176 180 192 174
89 84 68 52 42 32 28 20 9 6 24 40 30 26 23 21 7 9 28 45 48 65 73 48 28 4 355 349 341 344 346 350 342 275 282 270 245 232 219 200 194 201 202
62 78 84 60 43 32 30 18 6 355 340 12 28 27 28 21 8 351 357 16 34 40 44 36 12 3 353 346 339 341 349 11 345 281 270 280 261 251 243 229 219 229 235
240 265 117 100 59 42 30 20 12 7 340 344 3 20 27 18 5 2 344 310 320 345 359 356 355 4 358 350 339 345 358 1 340 277 275 278 260 257 248 244 250 254 258
222 230 212 173 88 67 46 29 17 13 356 349 1 13 29 26 11 10 6 353 352 353 5 342 355 354 351 345 336 334 335 341 296 267 278 278 260 269 263 249 253 258 267
217 229 227 193 139 94 52 23 27 18 354 348 352 18 47 27 13 6 2 353 2 349 349 355 348 340 337 325 315 313 312 301 274 257 266 268 261 269 273 267 256 263 271
226 234 245 221 199 177 103 353 34 9 326 316 359 342 32 47 3 345 343 339 336 338 336 338 336 326 325 317 313 306 291 283 267 247 254 264 259 262 270 275 268 262 265
236 238 241 240 221 174 171 240 243 259 297 300 331 323 336 348 342 314 324 328 316 310 303 300 303 299 299 311 308 304 289 277 266 252 248 254 255 254 263 274 280 274 267
230 229 237 239 237 212 217 232 243 249 272 275 278 296 319 303 275 281 268 305 301 305 309 323 319 317 305 308 302 302 291 278 266 255 247 243 254 259 262 280 285 291 290
226 233 238 248 252 239 226 224 238 243 269 269 270 284 286 284 280 312 265 286 302 321 334 303 288 296 303 304 301 294 288 283 272 249 233 232 238 255 278 305 314 309 311
225 234 239 234 227 245 238 221 217 219 254 265 267 276 284 277 270 310 288 298 311 331 310 298 313 271 286 304 298 290 283 276 275 256 228 222 230 240 268 296 302 303 308
227 230 223 232 232 230 238 210 167 244 267 273 261 258 261 271 271 270 296 316 319 285 307 301 295 299 269 277 297 302 289 278 273 250 233 224 222 242 260 276 292 305 310
232 235 228 224 233 211 219 190 180 246 258 266 257 252 254 266 268 255 271 301 306 265 261 263 270 297 303 305 320 320 314 297 279 266 247 227 242 255 252 259 282 296 305
227 230 228 220 228 211 207 204 201 216 242 250 261 267 259 251 246 250 234 247 241 255 280 290 279 263 295 328 307 331 310 315 326 302 264 224 252 273 271 285 276 274 291
240 235 236 228 246 234 215 195 126 33 340 311 282 268 262 247 237 231 230 228 228 233 237 244 240 228 255 290 251 194 236 261 295 285 257 239 232 247 265 291 275 273 281
240 238 227 227 234 238 205 187 184 209 243 256 249 250 273 260 244 233 225 220 226 229 239 244 240 238 225 248 276 256 230 239 254 286 283 258 258 261 264 283 281 274 280
238 229 226 228 241 237 211 199 197 222 246 259 260 256 265 266 257 248 235 223 229 234 235 235 241 244 232 232 241 253 266 274 248 243 273 294 308 282 273 261 243 266 282
237 223 217 223 248 238 215 209 214 223 239 251 253 249 258 265 268 257 247 235 235 235 236 236 233 236 242 238 241 239 240 246 250 245 259 277 289 292 295 266 232 246 293
Height
1528 1528 1528 1528 1528 1528 1527 1527 1526 1525 1525 1525 1524 1524 1524 1524 1523 1523 1523 1523 1523 1523 1523 1523 1523 1522 1522 1522 1522 1522 1522 1522 1522 1522 1521 1521 1521 1521 1521 1520 1520 1520 1520
1527 1527 1527 1527 1528 1527 1527 1527 1526 1525 1525 1524 1524 1523 1523 1523 1523 1523 1523 1523 1523 1523 1522 1522 1522 1522 1522 1522 1522 1522 1522 1522 1522 1522 1521 1521 1521 1521 1521 1520 1520 1520 1519
1527 1527 1527 1527 1527 1527 1526 1526 1525 1525 1524 1524 1523 1523 1522 1522 1522 1522 1522 1522 1522 1522 1522 1522 1522 1522 1522 1522 1522 1522 1522 1522 1521 1521 1521 1521 1521 1521 1521 1521 1520 1520 1519
1526 1526 1526 1526 1526 1526 1525 1525 1524 1524 1524 1523 1522 1522 1522 1521 1521 1521 1521 1521 1521 1521 1521 1521 1521 1521 1521 1521 1521 1521 1521 1521 1521 1521 1521 1521 1521 1521 1520 1520 1520 1519 1519
1526 1526 1526 1526 1525 1524 1524 1524 1524 1523 1523 1522 1522 1521 1521 1520 1520 1520 1520 1520 1520 1520 1520 1520 1520 1520 1520 1520 1520 1520 1520 1520 1520 1520 1520 1520 1520 1520 1520 1520 1519 1519 1518
1525 1525 1525 1525 1524 1524 1523 1523 1522 1522 1521 1521 1520 1520 1520 1519 1519 1519 1519 1519 1519 1519 1519 1519 1519 1519 1519 1519 1519 1519 1519 1519 1519 1519 1520 1520 1519 1519 1519 1519 1519 1518 1518
1524 1525 1524 1524 1524 1523 1522 1522 1521 1521 1521 1520 1519 1519 1518 1518 1517 1517 1517 1517 1518 1518 1518 1518 1518 1518 1518 1518 1518 1518 1518 1518 1518 1518 1518 1519 1518 1518 1518 1518 1518 1517 1517
1523 1523 1523 1523 1522 1522 1521 1521 1520 1520 1519 1519 1518 1518 1517 1517 1516 1516 1516 1516 1516 1516 1516 1516 1516 1517 1517 1517 1517 1516 1516 1517 1517 1517 1517 1517 1517 1517 1517 1517 1516 1516 1516
1522 1522 1522 1521 1521 1520 1520 1519 1519 1518 1518 1517 1516 1516 1516 1515 1515 1514 1514 1514 1515 1515 1514 1515 1515 1515 1515 1515 1515 1515 1515 1515 1515 1515 1515 1515 1516 1516 1515 1515 1515 1515 1515
1521 1520 1520 1520 1519 1518 1518 1517 1517 1516 1516 1516 1515 1514 1514 1514 1513 1513 1512 1512 1513 1513 1512 1512 1513 1513 1513 1513 1513 1513 1513 1513 1513 1513 1513 1514 1514 1514 1514 1514 1513 1513 1513
1518 1518 1518 1518 1517 1517 1516 1515 1515 1515 1514 1514 1513 1512 1512 1512 1511 1511 1511 1511 1511 1510 1510 1510 1510 1510 1511 1511 1511 1511 1511 1511 1511 1511 1511 1511 1512 1512 1512 1511 1511 1511 1511
1516 1516 1515 1515 1515 1514 1514 1513 1513 1512 1512 1511 1511 1510 1510 1510 1509 1509 1508 1509 1508 1508 1508 1508 1508 1508 1508 1509 1509 1509 1509 1509 1509 1509 1509 1509 1509 1509 1509 1509 1509 1509 1509
1513 1513 1513 1513 1513 1512 1512 1511 1510 1510 1509 1509 1509 1508 1508 1507 1507 1506 1506 1506 1506 1506 1506 1506 1506 1506 1506 1506 1507 1507 1506 1506 1506 1507 1507 1507 1507 1507 1507 1507 1507 1507 1507
1511 1510 1510 1510 1510 1510 1509 1508 1507 1507 1507 1506 1506 1506 1505 1505 1504 1504 1504 1504 1504 1504 1503 1503 1504 1504 1504 1504 1504 1504 1504 1504 1504 1504 1504 1504 1504 1504 1504 1504 1504 1504 1504
1508 1507 1507 1507 1507 1506 1506 1505 1505 1504 1504 1503 1503 1503 1503 1503 1502 1502 1501 1501 1502 1502 1501 1501 1501 1502 1501 1501 1502 1501 1501 1501 1501 1501 1501 1501 1501 1501 1501 1501 1501 1501 1502
1505 1504 1504 1504 1504 1503 1503 1502 1502 1502 1501 1501 1500 1501 1500 1500 1500 1499 1499 1499 1499 1499 1499 1499 1499 1499 1499 1499 1499 1498 1498 1499 1499 1498 1498 1498 1498 1498 1498 1498 1498 1498 1498
1502 1501 1501 1501 1500 1500 1500 1499 1499 1499 1499 1498 1498 1497 1497 1497 1497 1497 1496 1496 1496 1496 1496 1496 1496 1496 1496 1496 1496 1496 1496 1496 1495 1495 1495 1495 1495 1495 1495 1495 1495 1495 1494
1499 1498 1497 1497 1497 1497 1496 1496 1496 1496 1495 1495 1494 1494 1494 1495 1494 1493 1493 1493 1493 1493 1493 1493 1493 1493 1493 1493 1492 1492 1492 1492 1492 1492 1492 1492 1492 1492 1492 1492 1491 1491 1491
1496 1495 1494 1494 1493 1493 1493 1493 1493 1492 1492 1492 1491 1491 1491 1492 1491 1491 1490 1490 1490 1490 1490 1490 1490 1490 1490 1489 1489 1489 1489 1489 1488 1488 1488 1488 1488 1488 1488 1488 1488 1488 1488
1493 1492 1491 1490 1490 1490 1489 1489 1489 1490 1489 1489 1489 1488 1488 1488 1488 1488 1487 1486 1486 1486 1487 1487 1488 1487 1487 1487 1486 1486 1486 1485 1485 1485 1485 1485 1485 1485 1485 1485 1485 1484 1484
1490 1489 1488 1487 1487 1486 1486 1485 1485 1485 1486 1486 1486 1485 1485 1485 1485 1485 1484 1484 1483 1483 1484 1484 1484 1484 1484 1484 1483 1482 1482 1482 1481 1481 1481 1481 1481 1482 1481 1481 1481 1480 1480
1487 1486 1485 1484 1484 1484 1483 1483 1483 1483 1483 1483 1483 1482 1482 1482 1482 1481 1481 1481 1481 1481 1481 1481 1481 1481 1481 1482 1481 1480 1479 1479 1478 1478 1478 1478 1478 1478 1478 1477 1477 1477 1476
1483 1482 1482 1481 1481 1481 1481 1480 1480 1480 1479 1480 1479 1479 1479 1479 1478 1478 1478 1478 1477 1477 1478 1478 1478 1478 1478 1479 1479 1479 1478 1475 1474 1474 1474 1474 1475 1475 1474 1474 1473 1473 1473
1480 1480 1479 1479 1478 1478 1478 1478 1477 1476 1476 1476 1476 1476 1476 1475 1475 1475 1475 1474 1474 1474 1475 1475 1475 1475 1476 1475 1476 1476 1476 1475 1474 1471 1471 1471 1471 1471 1471 1470 1469 1469 1469
1477 1477 1476 1476 1476 1475 1475 1474 1474 1473 1473 1473 1473 1472 1472 1472 1472 1472 1471 1471 1471 1471 1471 1471 1472 1472 1472 1472 1473 1472 1472 1472 1471 1470 1467 1466 1467 1467 1467 1466 1466 1466 1465
1474 1474 1473 1473 1472 1472 1472 1471 1470 1470 1470 1469 1469 1469 1468 1468 1468 1468 1468 1468 1467 1467 1467 1468 1468 1469 1469 1469 1469 1469 1468 1468 1467 1467 1465 1463 1463 1462 1463 1463 1462 1462 1462